www.pogodaiklimat.ru

Погода и климат >> Архив погоды >> Россия >> Кировская область >> Нагорск


ПОГОДА в Нагорске

  • Прогноз погоды в Нагорске
  • Монитор погоды в Нагорске
  • Климат города

АРХИВ ПОГОДЫ в Нагорске

Время (UTC), дата Ветер
(напр.,м/с)
 
Видим.   Явления Облачность Т
(С)
Тd
(С)
f
(%)
Тe
(С)
Тes
(С)
Комфортность P
(гПа)
Po
(гПа)
Тmin
(С)
Tmax
(С)
R
(мм)
R24
(мм)
S
(см)
03 13.11 Ю 3-4
{6}
4000 м дымка {снег} 10/10 210 м
[St]
-0.4 -0.7 98 -5 -5 1015.6 989.0 -0.7 1 5
06 13.11 ЮВ 2-4
{5}
6000 м дымка {ливн. осадки, снег} 10/10 210 м
[St]
-0.3 -0.9 96 -4 -4 1016.0 989.4
09 13.11 ЮВ 1-3
{5}
4500 м слабый ливневой снег 10/10 180 м
[Cb calv]
0.0 -0.6 96 -2 -2 1016.4 989.9
12 13.11 ЮВ 1-3
{3}
500 м слабый снег {ливн. осадки} туман ?/? -0.2 -0.2 100 -3 -3 1016.4 989.8
15 13.11 В 1-2
{3}
500 м слабый снег {туман} туман ?/? -0.4 -0.4 100 -3 -3 1016.4 989.8 0.0 2
18 13.11 штиль 0
{2}
500 м слабый снег {туман} туман ?/? -0.5 -0.5 100 -2 -2 1016.2 989.6
21 13.11 В 1-1
{2}
500 м снег {туман} туман ?/? -0.4 -0.4 100 -3 -3 1016.3 989.7
00 14.11 штиль 0
{1}
500 м снег {туман} [диам. отлож. мокр. снега 33 мм] ?/? -0.4 -0.4 100 -2 -2 1016.5 989.9
03 14.11 штиль 0
{1}
500 м слабый снег {туман} [диам. отлож. мокр. снега 38 мм] ?/? -0.2 -0.2 100 -2 -2 1016.9 990.3 -0.5 7 12
06 14.11 штиль 0
{1}
500 м туман {снег} [диам. отлож. мокр. снега 38 мм] ?/? -0.1 -0.1 100 -2 -2 1017.1 990.6
09 14.11 ЮВ 1-2
{3}
600 м туман ?/? 0.0 0.0 100 -2 -2 1016.5 990.0
12 14.11 Ю 2-5
{5}
7000 м дымка {туман} 10/10 180 м
[St]
-0.1 -0.4 98 -4 -4 1015.5 989.0
15 14.11 ЮВ 3-6
{8}
500 м туман ?/? -0.4 -0.4 100 -5 -5 1013.2 986.7 +0.1 0.1
18 14.11 ЮВ 3-5
{8}
1000 м снег {туман} 10/10 210 м
[Frnb Ns]
-0.3 -0.6 98 -5 -5 1007.7 981.4
21 14.11 ЮВ 3-6
{7}
1000 м снег 10/10 180 м
[Frnb Ns]
-0.1 -0.4 98 -5 -5 1002.9 976.8
00 15.11 Ю 3-5
{7}
1000 м снег 10/10 210 м
[Frnb Ns]
0.0 -0.3 98 -5 -5 1000.9 974.8
03 15.11 ЮЗ 4-8
{10}
50 км в посл. час ливневой снег 10/4 300 м
[Cb calv Ac und]
+0.1 -1.0 92 -5 -5 1004.7 978.4 -0.4 8 17
06 15.11 ЮЗ 4-8
{10}
50 км {снег} 10/8 480 м
[Cu hum Ac und]
-0.3 -1.8 90 -6 -6 1009.8 983.3
09 15.11 З 4-8
{10}
50 км 8/3 600 м
[Cu hum Ac trans]
-0.1 -2.1 86 -6 -5 1012.7 986.2
12 15.11 ЮЗ 2-5
{8}
50 км {ливн. осадки} 8/8 600 м
[Cb calv]
-0.9 -2.8 87 -5 -5 1015.3 988.7
15 15.11 Ю 1-3
{6}
50 км 8/0
[Ac trans]
-1.9 -3.4 89 -4 -4 1016.2 989.5 +0.3 0.3
18 15.11 ЮЗ 2-4
{6}
50 км 5/0
[Ac trans]
-2.2 -3.4 91 -6 -6 1016.6 989.8
21 15.11 ЮЗ 2-4
{8}
50 км 8/0
[Ac trans Ci fib]
-2.1 -3.3 91 -6 -6 1016.9 990.1
00 16.11 ЮЗ 2-4
{5}
50 км 9/0
[Ac trans]
-2.0 -3.2 91 -6 -6 1016.7 989.9
03 16.11 Ю 2-4
{4}
10 км слабый ливневой снег 10/10 330 м
[Cb calv]
-2.1 -3.3 91 -6 -6 1016.0 989.2 -2.7 0.0 18
06 16.11 Ю 1-3
{4}
10 км слабый ливневой снег 10/10 500 м
[Cb calv]
-1.7 -2.5 94 -4 -4 1015.4 988.7
09 16.11 Ю 2-3
{4}
8000 м слабый снег {ливн. осадки} 10/10 270 м
[Frnb Ns]
-1.3 -2.1 94 -5 -5 1014.5 987.8
12 16.11 Ю 2-3
{4}
8000 м слабый снег {ливн. осадки} 10/10 300 м
[Frnb Ns]
-1.3 -2.1 94 -5 -5 1013.6 987.0
15 16.11 Ю 2-4
{4}
50 км {снег} 10/10 300 м
[Cb calv]
-1.7 -2.5 94 -6 -6 1013.2 986.6 -0.9 1
18 16.11 Ю 2-3
{4}
50 км в посл. час ливневой снег 10/10 300 м
[Cb calv]
-2.0 -2.9 94 -6 -6 1012.1 985.4
21 16.11 Ю 1-2
{4}
50 км {ливн. осадки} 10/10 270 м
[St]
-2.1 -3.0 94 -4 -4 1011.3 984.6
00 17.11 ЮВ 1-2
{3}
4000 м слабый снег {ливн. осадки} 10/0 270 м
[As op]
-2.1 -2.7 96 -4 -4 1011.0 984.3
03 17.11 Ю 1-1
{2}
4000 м слабый снег 10/0 300 м
[As op]
-2.9 -3.6 95 -5 -5 1010.8 984.1 -2.9 0.4 18
06 17.11 ЮЗ 2-4
{4}
4100 м слабый снег 10/10 270 м
[Frnb Ns]
-2.4 -3.0 96 -7 -7 1010.9 984.2 -3.0
09 17.11 З 2-3
{5}
13 км слабый ливневой снег 10/10 270 м
[Cb calv]
-1.0 -2.0 93 -5 -5 1011.9 985.3
12 17.11 З 3-4
{8}
50 км в посл. час ливневой снег 8/8 600 м
[Cb calv Ac trans]
-1.4 -3.4 86 -6 -6 1013.5 986.9
15 17.11 ЮЗ 2-3
{9}
10 км слабый ливневой снег 10/10 540 м
[Cb calv]
-2.3 -4.2 87 -6 -6 1014.6 987.8 -0.9 0.9
18 17.11 ЮЗ 3-4
{11}
10 км слабый ливневой снег {метель} 10/10 630 м
[Cb calv]
-3.7 -5.9 85 -9 -9 1015.8 988.9
21 17.11 ЮВ 1-2
{6}
50 км {ливн. осадки} 10/0
[Ac und]
-4.2 -5.4 91 -7 -7 1015.6 988.6
00 18.11 Ю 2-4
{4}
50 км {ливн. осадки} 10/0
[Ac und]
-3.7 -4.8 92 -8 -8 1014.4 987.5
03 18.11 Ю 3-5
{6}
10 км слабый снег 10/0 270 м
[As op]
-2.6 -3.2 96 -8 -8 1012.7 986.0 -4.2 0.0 19
06 18.11 Ю 3-5
{7}
6000 м слабый снег 10/0 270 м
[As op]
-1.4 -2.2 94 -7 -7 1011.0 984.4
09 18.11 Ю 3-6
{8}
8000 м слабый снег 10/0 300 м
[As op]
-0.8 -1.8 93 -6 -6 1010.7 984.2
12 18.11 ЮЗ 3-6
{8}
50 км {снег} 10/10 270 м
[St]
-0.4 -1.3 94 -5 -5 1011.5 985.0
15 18.11 ЮЗ 3-7
{8}
50 км {ливн. осадки} 10/8 300 м
[Cb calv Ac und]
0.0 -0.8 94 -5 -5 1012.5 986.1 +0.1 1
18 18.11 ЮЗ 3-7
{7}
50 км {ливн. осадки} 10/10 330 м
[Sc]
0.0 -1.1 92 -5 -5 1013.6 987.2
21 18.11 ЮЗ 3-6
{7}
50 км 10/10 300 м
[Sc]
+0.1 -1.3 90 -5 -5 1015.1 988.6
00 19.11 Ю 3-7
{8}
50 км 10/8 300 м
[Cb calv Ac und]
-0.2 -1.4 92 -5 -5 1016.1 989.5
03 19.11 Ю 2-5
{7}
50 км {ливн. осадки} 10/10 600 м
[Sc]
-0.5 -2.0 90 -4 -4 1016.8 990.2 -0.5 0.0 18
06 19.11 Ю 3-6
{7}
50 км {ливн. осадки} 10/10 570 м
[Sc]
-0.4 -2.8 84 -5 -5 1017.5 990.9
09 19.11 Ю 3-5
{6}
9000 м слабый ливневой снег 9/6 300 м
[Cb calv Ac trans]
-0.2 -1.9 88 -5 -5 1017.4 990.8
12 19.11 Ю 2-5
{6}
8000 м слабый ливневой снег 10/10 400 м
[Cb calv]
0.0 -1.1 92 -4 -4 1017.5 991.0
15 19.11 Ю 2-4
{8}
50 км {ливн. осадки} 10/10 360 м
[Cb calv]
-0.1 -1.2 92 -4 -4 1017.6 991.1 +0.1 0.4
18 19.11 Ю 2-4
{5}
10 км слабый ливневой снег 10/10 330 м
[Cb calv]
-0.2 -1.1 94 -4 -4 1017.8 991.2
21 19.11 Ю 2-5
{7}
10 км слабый ливневой снег 10/10 300 м
[Cb calv]
-0.5 -1.4 94 -4 -4 1018.0 991.4
00 20.11 ЮВ 2-3
{5}
50 км {ливн. осадки} 10/10 330 м
[Cb calv]
-0.9 -1.9 93 -5 -5 1017.6 991.0

 

Местоположение метеостанции Нагорск (Кировская область, Россия): широта 59.32 долгота 50.83 высота над уровнем моря 213 м.

В архиве по умолчанию представлена погода в Нагорске за последнюю неделю. Архивные данные за месяц целиком и за предыдущие месяцы, начиная с января 2011 года, Вы можете получить, выбрав интересующий диапазон дат из раскрывающегося списка и нажав кнопку "Ввод!".

Внимание! Время в таблицах - всемирное. Для получения местного времени необходимо прибавить поправку, которая в Нагорске равна 3 ч.

Смотрите также архив погоды в соседних городах и на ближайших метеорологических станциях:

Погода в Белой Холунице (Кировская область, Россия) (55 км)
Погода в Кирсе (Кировская область, Россия) (81 км)
Погода в Кирове (Кировская область, Россия) (106 км)
Погода в Фаленках (Кировская область, Россия) (116 км)
Погода в Койгородке (Коми, Россия) (126 км)
Погода в Объячеве (Коми, Россия) (134 км)
Погода в Кумене (Кировская область, Россия) (146 км)
Погода в Опарино (Кировская область, Россия) (155 км)
Погода в Усть-Черной (Пермский край, Россия) (163 км)
Погода в Глазове (Удмуртия, Россия) (167 км)

Пояснения к столбцам:

Ветер - указаны скорость ветра в м/с - средняя за 10 мин, порывы в срок и между сроками (в фигурных скобках) и направление, откуда дует ветер: С - северный, СВ - северо-восточный, В - восточный, ЮВ - юго-восточный, Ю - южный, ЮЗ - юго-западный, З - западный, СЗ - северо-западный.
Видимость - горизонтальная дальность видимости в метрах или километрах. При видимости от 1 до 10 км при отсутствии осадков обычно наблюдается дымка, при ухудшении видимости до 1 км и менее - туман. В сухую погоду видимость может ухудшаться дымом, пылью или мглою.
Явления - указаны атмосферные явления, наблюдавшиеся в срок или в последний час перед сроком; фигурными скобками обозначены явления, наблюдавшиеся между сроками (за 1-3 часа до срока); квадратными скобками обозначены град или гололедные отложения с указанием их диаметра в мм.
Облачность - указаны через наклонную черту общая и нижняя облачность в баллах и высота нижней границы облаков в метрах; квадратными скобками обозначены формы облаков: Ci - перистые, Cs - перисто-слоистые, Cc - перисто-кучевые, Ac - высококучевые, As - высокослоистые, Sc - слоисто-кучевые, Ns - слоисто-дождевые, Cu - кучевые, Cb - кучево-дождевые. Подробнее классификацию облаков см. в Атласе облаков (PDF).
T - Температура воздуха - температура, измеренная на высоте 2 м над землей.
Td - Температура точки росы - температура, при понижении до которой содержащийся в воздухе водяной пар достигнет насыщения.
f - Относительная влажность воздуха - влажноcть воздуха, измеренная на высоте 2 м над землей.
Te - Эффективная температура - температура, которую ощущает одетый по сезону человек в тени. Характеристика душности погоды. При расчете учитывается влияние влажности воздуха и скорости ветра на теплоощущения человека.
Tes - Эффективная температура на солнце - температура, которую ощущает человек, с поправкой на солнечный нагрев. Характеристика знойности погоды. Зависит от высоты солнца над горизонтом, облачности и скорости ветра. Ночью, в пасмурную погоду, а также при ветре 12 м/с и более поправка равна нулю.
P - Атмосферное давление - приведенное к уровню моря атмосферное давление.
Po - Атмосферное давление - измеренное на уровне метеостанции атмосферное давление.
Tmin - Минимальная температура - минимум температуры воздуха на высоте 2 м над землей.
Tmax - Максимальная температура - максимум температуры воздуха на высоте 2 м над землей.
R - Количество осадков - Количество выпавших осадков за период времени, мм. При наведении курсора мыши на число - период времени, за который выпало указанное количество осадков.
R24 - Количество осадков - Количество выпавших осадков за 24 часа, мм.
S - Снежный покров - Высота снежного покрова, см. При наведении курсора мыши на число - состояние снежного покрова и степень покрытия местности в баллах.